{"data":{"norad_id":66851,"intl_designator":"2025-281D","name":"STARLINK-36094","alt_names":[],"object_type":"PAYLOAD","status":"ACTIVE","operator":null,"country":"US","launch_date":"2025-12-02","launch_site_code":"AFETR","launch_vehicle":null,"mission":null,"orbit_class":"UNKNOWN","rcs_meters":null,"size_class":null,"mass_kg":null,"dimensions":null,"purposes":["comms"],"wikipedia_slug":null,"has_3d_model":false,"image_url":null,"decayed_at":null,"tle_current":{"epoch":"2026-05-25T01:00:28.069920Z","epoch_age_seconds":74722,"freshness":"FRESH","line1":"1 66851U 25281D   26145.04199155  .00014210  00000+0  52480-3 0  9995","line2":"2 66851  43.0030 272.1868 0001724  50.6094 309.4910 15.27587104 27869","mean_motion":15.27587104,"eccentricity":0.0001724,"inclination_deg":43.003,"raan_deg":272.1868,"arg_perigee_deg":50.6094,"mean_anomaly_deg":309.491,"bstar":0.0005248,"rev_number":2786,"period_min":94.266310328841,"perigee_km":481.84495937475,"apogee_km":484.21068900613,"semimajor_km":6861.1648241904,"source":"CELESTRAK","updated_at":"2026-05-25T13:38:21.340439Z"}}}